Location: Vancouver
(49.2500°N, 123.1330°W)
Time: 20:50:59
(UTC-07:00)

Cosmos 2333 Rocket - Visible Passes

Search period start: 17 October 2017 00:00
Search period end: 27 October 2017 00:00
Orbit: 840 x 862 km, 70.8° (Epoch: 17 October)

Date Brightness Start Highest point End Pass type
(mag) Time Alt. Az. Time Alt. Az. Time Alt. Az.
17 Oct 2.7 19:40:03 10° NNW 19:45:26 40° NE 19:48:29 23° ESE visible
17 Oct 3.1 21:24:22 10° NW 21:29:46 43° WSW 21:30:30 41° SW visible
18 Oct 2.7 19:27:43 10° NNW 19:33:08 40° NE 19:37:00 18° ESE visible
18 Oct 3.2 21:12:04 10° NW 21:17:27 43° WSW 21:19:03 35° SSW visible
19 Oct 2.7 19:15:25 10° NNW 19:20:48 40° NE 19:25:41 12° ESE visible
19 Oct 3.2 20:59:45 10° NW 21:05:08 43° WSW 21:07:44 27° SSW visible
20 Oct 2.7 19:03:06 10° NNW 19:08:29 40° NE 19:13:53 10° ESE visible
20 Oct 3.3 20:47:26 10° NW 20:52:49 43° WSW 20:56:37 19° S visible
21 Oct 2.7 18:50:47 10° NNW 18:56:11 40° NE 19:01:34 10° ESE visible
21 Oct 3.3 20:35:07 10° NW 20:40:31 43° WSW 20:45:47 10° S visible
22 Oct 2.7 18:38:28 10° NNW 18:43:52 40° NE 18:49:15 10° ESE visible
22 Oct 3.3 20:22:48 10° NW 20:28:12 43° WSW 20:33:35 10° S visible
23 Oct 3.4 20:10:30 10° NW 20:15:53 43° WSW 20:21:16 10° S visible
24 Oct 3.4 19:58:11 10° NW 20:03:34 43° WSW 20:08:58 10° S visible
25 Oct 3.5 19:45:52 10° NW 19:51:16 43° WSW 19:56:39 10° S visible
26 Oct 3.5 19:33:33 10° NW 19:38:57 43° WSW 19:44:20 10° S visible
